TimeEET,TemperatureF,Dew PointF,Humidity,Sea Level PressureIn,VisibilityMPH,Wind Direction,Wind SpeedMPH,Gust SpeedMPH,PrecipitationIn,Events,Conditions,WindDirDegrees,DateUTC
12:00 AM,59.0,50.0,72,30.09,-9999.0,NNW,12.7,-,N/A,,Clear,340,2012-11-12 22:00:00
1:00 AM,59.0,48.2,67,30.09,-9999.0,NNW,11.5,-,N/A,,Clear,340,2012-11-12 23:00:00
2:00 AM,58,52,75,30.08,6,NNW,9.2,,,,,340,2012-11-13 00:00:00
2:00 AM,59.0,51.8,77,30.06,-9999.0,NNW,9.2,-,N/A,,Clear,340,2012-11-13 00:00:00
3:00 AM,59.0,51.8,77,30.06,-9999.0,NNW,8.1,-,N/A,,Clear,330,2012-11-13 01:00:00
4:00 AM,57.2,51.8,82,30.06,-9999.0,NNW,9.2,-,N/A,,Clear,340,2012-11-13 02:00:00
5:00 AM,55.4,53.6,94,30.04,3.7,NNW,8.1,-,N/A,,Unknown,330,2012-11-13 03:00:00
6:00 AM,55.4,53.6,94,30.06,3.7,NNW,6.9,-,N/A,,Unknown,340,2012-11-13 04:00:00
7:00 AM,53.6,51.8,94,30.06,3.7,NNW,5.8,-,N/A,,Unknown,330,2012-11-13 05:00:00
8:00 AM,56,53,85,30.09,6,NNW,6.9,,,,,330,2012-11-13 06:00:00
8:00 AM,55.4,53.6,94,30.09,-9999.0,NNW,6.9,-,N/A,,Clear,330,2012-11-13 06:00:00
9:00 AM,59.0,53.6,82,30.09,-9999.0,NNW,9.2,-,N/A,,Clear,340,2012-11-13 07:00:00
10:00 AM,62.6,50.0,63,30.09,-9999.0,North,11.5,-,N/A,,Clear,350,2012-11-13 08:00:00
11:00 AM,66.2,53.6,64,30.09,-9999.0,North,16.1,-,N/A,,Clear,350,2012-11-13 09:00:00
12:00 PM,69.8,53.6,56,30.06,-9999.0,North,13.8,-,N/A,,Clear,360,2012-11-13 10:00:00
1:00 PM,71.6,51.8,50,30.04,-9999.0,North,15.0,-,N/A,,Clear,350,2012-11-13 11:00:00
2:00 PM,73,50,34,30.01,6,,16.1,,,,Clear,,2012-11-13 12:00:00
2:00 PM,73.4,50.0,44,30.04,-9999.0,North,16.1,-,N/A,,Clear,350,2012-11-13 12:00:00
3:00 PM,73.4,50.0,44,30.01,-9999.0,North,11.5,-,N/A,,Clear,350,2012-11-13 13:00:00
4:00 PM,71.6,50.0,46,30.01,-9999.0,NNW,16.1,-,N/A,,Clear,340,2012-11-13 14:00:00
5:00 PM,71.6,55.4,57,30.01,-9999.0,NNW,16.1,-,N/A,,Clear,330,2012-11-13 15:00:00
6:00 PM,68.0,53.6,60,30.04,-9999.0,NNW,17.3,-,N/A,,Clear,330,2012-11-13 16:00:00
7:00 PM,66.2,53.6,64,30.04,-9999.0,NW,17.3,-,N/A,,Clear,320,2012-11-13 17:00:00
8:00 PM,64,54,63,30.04,6,NW,16.1,,,,,320,2012-11-13 18:00:00
8:00 PM,64.4,55.4,73,30.04,-9999.0,NNW,16.1,-,N/A,,Clear,330,2012-11-13 18:00:00
9:00 PM,62.6,55.4,77,30.06,-9999.0,NNW,12.7,-,N/A,,Clear,330,2012-11-13 19:00:00
10:00 PM,62.6,55.4,77,30.06,-9999.0,NW,10.4,-,N/A,,Clear,320,2012-11-13 20:00:00
11:00 PM,59.0,55.4,88,30.06,5.0,NW,8.1,-,N/A,,Unknown,310,2012-11-13 21:00:00